contact:dominique.lefevre@mio.osupytheas.fr, maurice.libes@osupytheas.fr, didier.mallarino@osupytheas.fr
Project:EMSO http://www.emso-fr.org/EMSO-France
Depth: 2436.0 m
Title:EMSO Ligure Ouest : Data MII capteur OXYGEN
DateTime,Latitude,Longitude,Optode-Type,Optode_Serial,Oxygen,Saturation_Oxygen,Temperature
DateTime,Latitude,Longitude,Optode-Type,Optode_Serial,µmol.l-1,%,degC
2017-11-17T00:01:09,42.805,6.029,4330,1995,197.610,60.429,13.286
2017-11-17T00:04:09,42.805,6.029,4330,1995,197.534,60.406,13.286
2017-11-17T00:07:09,42.805,6.029,4330,1995,197.534,60.406,13.286
2017-11-17T00:10:09,42.805,6.029,4330,1995,197.475,60.388,13.286
2017-11-17T00:13:09,42.805,6.029,4330,1995,197.455,60.382,13.286
2017-11-17T00:16:09,42.805,6.029,4330,1995,197.447,60.380,13.286
2017-11-17T00:19:09,42.805,6.029,4330,1995,197.477,60.389,13.286
2017-11-17T00:22:09,42.805,6.029,4330,1995,197.407,60.368,13.286
2017-11-17T00:25:09,42.805,6.029,4330,1995,197.460,60.383,13.286
2017-11-17T00:28:09,42.805,6.029,4330,1995,197.389,60.363,13.287
2017-11-17T00:31:09,42.805,6.029,4330,1995,197.350,60.350,13.286
2017-11-17T00:34:09,42.805,6.029,4330,1995,197.350,60.350,13.286
2017-11-17T00:37:09,42.805,6.029,4330,1995,197.281,60.329,13.286
2017-11-17T00:40:09,42.805,6.029,4330,1995,197.312,60.339,13.286
2017-11-17T00:43:09,42.805,6.029,4330,1995,197.370,60.356,13.286
2017-11-17T00:46:09,42.805,6.029,4330,1995,197.364,60.354,13.286
2017-11-17T00:49:09,42.805,6.029,4330,1995,197.266,60.324,13.286
2017-11-17T00:52:09,42.805,6.029,4330,1995,197.257,60.322,13.286
2017-11-17T00:55:09,42.805,6.029,4330,1995,197.320,60.341,13.287
2017-11-17T00:58:09,42.805,6.029,4330,1995,197.250,60.320,13.286
2017-11-17T01:01:09,42.805,6.029,4330,1995,197.156,60.291,13.286
2017-11-17T01:04:09,42.805,6.029,4330,1995,197.153,60.290,13.286
2017-11-17T01:07:09,42.805,6.029,4330,1995,197.115,60.278,13.286
2017-11-17T01:10:09,42.805,6.029,4330,1995,197.136,60.284,13.286
2017-11-17T01:13:09,42.805,6.029,4330,1995,197.176,60.297,13.286
2017-11-17T01:16:09,42.805,6.029,4330,1995,197.192,60.301,13.286
2017-11-17T01:19:09,42.805,6.029,4330,1995,197.190,60.301,13.286
2017-11-17T01:22:09,42.805,6.029,4330,1995,197.152,60.289,13.286
2017-11-17T01:25:09,42.805,6.029,4330,1995,197.046,60.257,13.286
2017-11-17T01:28:09,42.805,6.029,4330,1995,197.052,60.259,13.286
2017-11-17T01:31:09,42.805,6.029,4330,1995,197.016,60.248,13.286
2017-11-17T01:34:09,42.805,6.029,4330,1995,196.984,60.239,13.287
2017-11-17T01:37:09,42.805,6.029,4330,1995,196.963,60.232,13.287
2017-11-17T01:40:09,42.805,6.029,4330,1995,196.834,60.193,13.287
2017-11-17T01:43:09,42.805,6.029,4330,1995,196.934,60.223,13.287
2017-11-17T01:46:09,42.805,6.029,4330,1995,196.875,60.205,13.286
2017-11-17T01:49:09,42.805,6.029,4330,1995,196.809,60.185,13.287
2017-11-17T01:52:09,42.805,6.029,4330,1995,196.643,60.134,13.287
2017-11-17T01:55:09,42.805,6.029,4330,1995,196.561,60.109,13.286
2017-11-17T01:58:09,42.805,6.029,4330,1995,196.537,60.102,13.287
2017-11-17T02:01:09,42.805,6.029,4330,1995,196.724,60.159,13.286
2017-11-17T02:04:09,42.805,6.029,4330,1995,196.614,60.125,13.286
2017-11-17T02:07:09,42.805,6.029,4330,1995,196.782,60.176,13.286
2017-11-17T02:10:09,42.805,6.029,4330,1995,196.696,60.151,13.287
2017-11-17T02:13:09,42.805,6.029,4330,1995,196.528,60.099,13.286
2017-11-17T02:16:09,42.805,6.029,4330,1995,196.507,60.094,13.287
2017-11-17T02:19:09,42.805,6.029,4330,1995,196.593,60.119,13.287
2017-11-17T02:22:09,42.805,6.029,4330,1995,196.589,60.118,13.287
2017-11-17T02:25:09,42.805,6.029,4330,1995,196.613,60.125,13.287
2017-11-17T02:28:09,42.805,6.029,4330,1995,196.607,60.123,13.287
2017-11-17T02:31:09,42.805,6.029,4330,1995,196.470,60.084,13.289
2017-11-17T02:34:09,42.805,6.029,4330,1995,196.486,60.087,13.287
2017-11-17T02:37:09,42.805,6.029,4330,1995,196.441,60.073,13.287
2017-11-17T02:40:09,42.805,6.029,4330,1995,196.451,60.078,13.289
2017-11-17T02:43:09,42.805,6.029,4330,1995,196.455,60.077,13.287
2017-11-17T02:46:09,42.805,6.029,4330,1995,196.713,60.156,13.287
2017-11-17T02:49:09,42.805,6.029,4330,1995,196.691,60.152,13.289
2017-11-17T02:52:09,42.805,6.029,4330,1995,196.867,60.203,13.287
2017-11-17T02:55:09,42.805,6.029,4330,1995,196.879,60.207,13.287
2017-11-17T02:58:09,42.805,6.029,4330,1995,196.891,60.210,13.287
2017-11-17T03:01:09,42.805,6.029,4330,1995,196.846,60.200,13.289
2017-11-17T03:04:09,42.805,6.029,4330,1995,196.964,60.234,13.288
2017-11-17T03:07:09,42.805,6.029,4330,1995,196.822,60.189,13.287
2017-11-17T03:10:09,42.805,6.029,4330,1995,196.930,60.222,13.287
2017-11-17T03:13:09,42.805,6.029,4330,1995,196.871,60.206,13.288
2017-11-17T03:16:09,42.805,6.029,4330,1995,196.967,60.233,13.287
2017-11-17T03:19:09,42.805,6.029,4330,1995,196.931,60.222,13.287
2017-11-17T03:22:09,42.805,6.029,4330,1995,197.078,60.268,13.287
2017-11-17T03:25:09,42.805,6.029,4330,1995,197.089,60.271,13.287
2017-11-17T03:28:09,42.805,6.029,4330,1995,197.225,60.314,13.288
2017-11-17T03:31:09,42.805,6.029,4330,1995,197.152,60.292,13.288
2017-11-17T03:34:09,42.805,6.029,4330,1995,196.866,60.203,13.287
2017-11-17T03:37:09,42.805,6.029,4330,1995,196.749,60.170,13.289
2017-11-17T03:40:09,42.805,6.029,4330,1995,196.629,60.130,13.287
2017-11-17T03:43:09,42.805,6.029,4330,1995,196.786,60.178,13.287
2017-11-17T03:46:09,42.805,6.029,4330,1995,196.822,60.189,13.286
2017-11-17T03:49:09,42.805,6.029,4330,1995,196.569,60.112,13.287
2017-11-17T03:52:09,42.805,6.029,4330,1995,196.604,60.123,13.287
2017-11-17T03:55:09,42.805,6.029,4330,1995,196.807,60.184,13.286
2017-11-17T03:58:09,42.805,6.029,4330,1995,196.843,60.195,13.287
2017-11-17T04:01:09,42.805,6.029,4330,1995,196.751,60.169,13.288
2017-11-17T04:04:09,42.805,6.029,4330,1995,196.701,60.152,13.287
2017-11-17T04:07:09,42.805,6.029,4330,1995,196.870,60.203,13.286
2017-11-17T04:10:09,42.805,6.029,4330,1995,196.878,60.206,13.286
2017-11-17T04:13:09,42.805,6.029,4330,1995,196.855,60.199,13.287
2017-11-17T04:16:09,42.805,6.029,4330,1995,196.657,60.139,13.287
2017-11-17T04:19:09,42.805,6.029,4330,1995,196.507,60.093,13.287
2017-11-17T04:22:09,42.805,6.029,4330,1995,196.356,60.047,13.287
2017-11-17T04:25:09,42.805,6.029,4330,1995,196.280,60.024,13.287
2017-11-17T04:28:09,42.805,6.029,4330,1995,196.306,60.033,13.288
2017-11-17T04:31:09,42.805,6.029,4330,1995,196.269,60.021,13.287
2017-11-17T04:34:09,42.805,6.029,4330,1995,196.208,60.002,13.287
2017-11-17T04:37:09,42.805,6.029,4330,1995,196.296,60.029,13.287
2017-11-17T04:40:09,42.805,6.029,4330,1995,196.263,60.018,13.287
2017-11-17T04:43:09,42.805,6.029,4330,1995,196.355,60.047,13.287
2017-11-17T04:46:09,42.805,6.029,4330,1995,196.517,60.096,13.287
2017-11-17T04:49:09,42.805,6.029,4330,1995,196.379,60.055,13.288
2017-11-17T04:52:09,42.805,6.029,4330,1995,196.075,59.961,13.287
2017-11-17T04:55:09,42.805,6.029,4330,1995,196.090,59.965,13.287
2017-11-17T04:58:09,42.805,6.029,4330,1995,196.111,59.973,13.287
2017-11-17T05:01:09,42.805,6.029,4330,1995,195.947,59.922,13.287
2017-11-17T05:04:09,42.805,6.029,4330,1995,196.010,59.942,13.287
2017-11-17T05:07:09,42.805,6.029,4330,1995,196.005,59.941,13.288
2017-11-17T05:10:09,42.805,6.029,4330,1995,195.999,59.938,13.287
2017-11-17T05:13:09,42.805,6.029,4330,1995,195.929,59.919,13.289
2017-11-17T05:16:09,42.805,6.029,4330,1995,195.857,59.895,13.287
2017-11-17T05:19:09,42.805,6.029,4330,1995,196.068,59.960,13.288
2017-11-17T05:22:09,42.805,6.029,4330,1995,195.938,59.920,13.288
2017-11-17T05:25:09,42.805,6.029,4330,1995,196.137,59.981,13.288
2017-11-17T05:28:09,42.805,6.029,4330,1995,196.172,59.991,13.287
2017-11-17T05:31:09,42.805,6.029,4330,1995,196.579,60.115,13.287
2017-11-17T05:34:09,42.805,6.029,4330,1995,196.560,60.109,13.287
2017-11-17T05:37:09,42.805,6.029,4330,1995,196.583,60.117,13.287
2017-11-17T05:40:09,42.805,6.029,4330,1995,196.646,60.135,13.287
2017-11-17T05:43:09,42.805,6.029,4330,1995,196.559,60.109,13.287
2017-11-17T05:46:09,42.805,6.029,4330,1995,196.673,60.143,13.286
2017-11-17T05:49:09,42.805,6.029,4330,1995,196.805,60.186,13.288
2017-11-17T05:52:09,42.805,6.029,4330,1995,196.640,60.133,13.287
2017-11-17T05:55:09,42.805,6.029,4330,1995,196.622,60.128,13.287
2017-11-17T05:58:09,42.805,6.029,4330,1995,196.562,60.110,13.287
2017-11-17T06:01:09,42.805,6.029,4330,1995,196.580,60.116,13.287
2017-11-17T06:04:09,42.805,6.029,4330,1995,196.505,60.094,13.288
2017-11-17T06:07:09,42.805,6.029,4330,1995,196.425,60.068,13.287
2017-11-17T06:10:09,42.805,6.029,4330,1995,196.452,60.076,13.287
2017-11-17T06:13:09,42.805,6.029,4330,1995,196.285,60.026,13.287
2017-11-17T06:16:09,42.805,6.029,4330,1995,196.068,59.961,13.288
2017-11-17T06:19:09,42.805,6.029,4330,1995,195.969,59.928,13.287
2017-11-17T06:22:09,42.805,6.029,4330,1995,196.066,59.959,13.288
2017-11-17T06:25:09,42.805,6.029,4330,1995,196.180,59.994,13.288
2017-11-17T06:28:09,42.805,6.029,4330,1995,196.133,59.983,13.290
2017-11-17T06:31:09,42.805,6.029,4330,1995,195.927,59.920,13.290
2017-11-17T06:34:09,42.805,6.029,4330,1995,195.916,59.913,13.288
2017-11-17T06:37:09,42.805,6.029,4330,1995,195.995,59.939,13.289
2017-11-17T06:40:09,42.805,6.029,4330,1995,195.891,59.906,13.288
2017-11-17T06:43:09,42.805,6.029,4330,1995,195.954,59.925,13.288
2017-11-17T06:46:09,42.805,6.029,4330,1995,195.952,59.925,13.288
2017-11-17T06:49:09,42.805,6.029,4330,1995,195.935,59.919,13.287
2017-11-17T06:52:09,42.805,6.029,4330,1995,195.874,59.903,13.290
2017-11-17T06:55:09,42.805,6.029,4330,1995,195.885,59.903,13.287
2017-11-17T06:58:09,42.805,6.029,4330,1995,196.003,59.941,13.289
2017-11-17T07:01:09,42.805,6.029,4330,1995,195.967,59.929,13.288
2017-11-17T07:04:09,42.805,6.029,4330,1995,195.839,59.890,13.288
2017-11-17T07:07:09,42.805,6.029,4330,1995,195.704,59.851,13.289
2017-11-17T07:10:09,42.805,6.029,4330,1995,195.728,59.857,13.288
2017-11-17T07:13:09,42.805,6.029,4330,1995,195.651,59.832,13.288
2017-11-17T07:16:09,42.805,6.029,4330,1995,195.686,59.843,13.288
2017-11-17T07:19:09,42.805,6.029,4330,1995,195.713,59.851,13.288
2017-11-17T07:22:09,42.805,6.029,4330,1995,195.702,59.849,13.288
2017-11-17T07:25:09,42.805,6.029,4330,1995,195.829,59.887,13.288
2017-11-17T07:28:09,42.805,6.029,4330,1995,195.786,59.873,13.287
2017-11-17T07:31:09,42.805,6.029,4330,1995,195.762,59.866,13.288
2017-11-17T07:34:09,42.805,6.029,4330,1995,195.581,59.810,13.287
2017-11-17T07:37:09,42.805,6.029,4330,1995,196.039,59.951,13.288
2017-11-17T07:40:09,42.805,6.029,4330,1995,195.909,59.911,13.288
2017-11-17T07:43:09,42.805,6.029,4330,1995,195.996,59.938,13.288
2017-11-17T07:46:09,42.805,6.029,4330,1995,195.994,59.937,13.287
2017-11-17T07:49:09,42.805,6.029,4330,1995,195.918,59.914,13.287
2017-11-17T07:52:09,42.805,6.029,4330,1995,195.737,59.858,13.287
2017-11-17T07:55:09,42.805,6.029,4330,1995,195.636,59.828,13.288
2017-11-17T07:58:09,42.805,6.029,4330,1995,195.486,59.782,13.287
2017-11-17T08:01:09,42.805,6.029,4330,1995,195.480,59.779,13.287
2017-11-17T08:04:09,42.805,6.029,4330,1995,195.528,59.795,13.288
2017-11-17T08:07:09,42.805,6.029,4330,1995,195.531,59.795,13.287
2017-11-17T08:10:09,42.805,6.029,4330,1995,195.512,59.789,13.287
2017-11-17T08:13:09,42.805,6.029,4330,1995,195.318,59.728,13.286
2017-11-17T08:16:09,42.805,6.029,4330,1995,195.557,59.802,13.286
2017-11-17T08:19:09,42.805,6.029,4330,1995,195.396,59.754,13.287
2017-11-17T08:22:09,42.805,6.029,4330,1995,195.493,59.782,13.286
2017-11-17T08:25:09,42.805,6.029,4330,1995,195.473,59.776,13.286
2017-11-17T08:28:09,42.805,6.029,4330,1995,195.541,59.797,13.287
2017-11-17T08:31:09,42.805,6.029,4330,1995,195.650,59.830,13.286
2017-11-17T08:34:09,42.805,6.029,4330,1995,195.476,59.777,13.286
2017-11-17T08:37:09,42.805,6.029,4330,1995,195.407,59.756,13.286
2017-11-17T08:40:09,42.805,6.029,4330,1995,195.502,59.785,13.286
2017-11-17T08:43:09,42.805,6.029,4330,1995,195.722,59.852,13.286
2017-11-17T08:46:09,42.805,6.029,4330,1995,195.871,59.897,13.286
2017-11-17T08:49:09,42.805,6.029,4330,1995,195.903,59.907,13.286
2017-11-17T08:52:09,42.805,6.029,4330,1995,195.954,59.924,13.287
2017-11-17T08:55:09,42.805,6.029,4330,1995,195.950,59.922,13.286
2017-11-17T08:58:09,42.805,6.029,4330,1995,196.042,59.950,13.286
2017-11-17T09:01:09,42.805,6.029,4330,1995,195.998,59.936,13.286
2017-11-17T09:04:09,42.805,6.029,4330,1995,195.911,59.910,13.286
2017-11-17T09:07:09,42.805,6.029,4330,1995,195.934,59.917,13.286
2017-11-17T09:10:09,42.805,6.029,4330,1995,195.889,59.904,13.287
2017-11-17T09:13:09,42.805,6.029,4330,1995,195.780,59.870,13.286
2017-11-17T09:16:09,42.805,6.029,4330,1995,195.754,59.862,13.286
2017-11-17T09:19:09,42.805,6.029,4330,1995,195.791,59.873,13.286
2017-11-17T09:22:09,42.805,6.029,4330,1995,195.850,59.891,13.286
2017-11-17T09:25:09,42.805,6.029,4330,1995,196.104,59.969,13.286
2017-11-17T09:28:09,42.805,6.029,4330,1995,196.244,60.011,13.286
2017-11-17T09:31:09,42.805,6.029,4330,1995,196.162,59.987,13.286
2017-11-17T09:34:09,42.805,6.029,4330,1995,196.215,60.003,13.286
2017-11-17T09:37:09,42.805,6.029,4330,1995,196.382,60.054,13.286
2017-11-17T09:40:09,42.805,6.029,4330,1995,196.346,60.043,13.286
2017-11-17T09:43:09,42.805,6.029,4330,1995,196.259,60.016,13.286
2017-11-17T09:46:09,42.805,6.029,4330,1995,196.183,59.993,13.286
2017-11-17T09:49:09,42.805,6.029,4330,1995,196.097,59.967,13.286
2017-11-17T09:52:09,42.805,6.029,4330,1995,196.351,60.044,13.286
2017-11-17T09:55:09,42.805,6.029,4330,1995,196.389,60.056,13.286
2017-11-17T09:58:09,42.805,6.029,4330,1995,196.574,60.113,13.286
2017-11-17T10:01:09,42.805,6.029,4330,1995,196.571,60.111,13.286
2017-11-17T10:04:09,42.805,6.029,4330,1995,196.731,60.160,13.286
2017-11-17T10:07:09,42.805,6.029,4330,1995,196.633,60.130,13.286
2017-11-17T10:10:09,42.805,6.029,4330,1995,196.708,60.153,13.286
2017-11-17T10:13:09,42.805,6.029,4330,1995,196.747,60.165,13.286
2017-11-17T10:16:09,42.805,6.029,4330,1995,196.650,60.135,13.286
2017-11-17T10:19:09,42.805,6.029,4330,1995,196.713,60.154,13.286
2017-11-17T10:22:09,42.805,6.029,4330,1995,196.885,60.207,13.286
2017-11-17T10:25:09,42.805,6.029,4330,1995,196.852,60.197,13.286
2017-11-17T10:28:09,42.805,6.029,4330,1995,196.990,60.239,13.286
2017-11-17T10:31:09,42.805,6.029,4330,1995,197.086,60.268,13.286
2017-11-17T10:34:09,42.805,6.029,4330,1995,197.190,60.300,13.286
2017-11-17T10:37:09,42.805,6.029,4330,1995,197.228,60.312,13.286
2017-11-17T10:40:09,42.805,6.029,4330,1995,197.286,60.330,13.286
2017-11-17T10:43:09,42.805,6.029,4330,1995,197.422,60.371,13.286
2017-11-17T10:46:09,42.805,6.029,4330,1995,197.467,60.385,13.285
2017-11-17T10:49:09,42.805,6.029,4330,1995,197.496,60.394,13.286
2017-11-17T10:52:09,42.805,6.029,4330,1995,197.679,60.450,13.286
2017-11-17T10:55:09,42.805,6.029,4330,1995,197.786,60.483,13.286
2017-11-17T10:58:09,42.805,6.029,4330,1995,197.915,60.522,13.285
2017-11-17T11:01:09,42.805,6.029,4330,1995,198.060,60.566,13.285
2017-11-17T11:04:09,42.805,6.029,4330,1995,198.174,60.601,13.285
2017-11-17T11:07:09,42.805,6.029,4330,1995,198.247,60.623,13.285
2017-11-17T11:10:09,42.805,6.029,4330,1995,198.274,60.631,13.285
2017-11-17T11:13:09,42.805,6.029,4330,1995,198.369,60.660,13.285
2017-11-17T11:16:09,42.805,6.029,4330,1995,198.372,60.662,13.286
2017-11-17T11:19:09,42.805,6.029,4330,1995,198.392,60.667,13.285
2017-11-17T11:22:09,42.805,6.029,4330,1995,198.360,60.658,13.285
2017-11-17T11:25:09,42.805,6.029,4330,1995,198.349,60.654,13.285
2017-11-17T11:28:09,42.805,6.029,4330,1995,198.276,60.632,13.285
2017-11-17T11:31:09,42.805,6.029,4330,1995,198.294,60.637,13.285
2017-11-17T11:34:09,42.805,6.029,4330,1995,198.214,60.613,13.285
2017-11-17T11:37:09,42.805,6.029,4330,1995,198.119,60.584,13.285
2017-11-17T11:40:09,42.805,6.029,4330,1995,198.035,60.558,13.285
2017-11-17T11:43:09,42.805,6.029,4330,1995,197.951,60.533,13.285
2017-11-17T11:46:09,42.805,6.029,4330,1995,197.824,60.494,13.285
2017-11-17T11:49:09,42.805,6.029,4330,1995,197.719,60.462,13.285
2017-11-17T11:52:09,42.805,6.029,4330,1995,197.640,60.437,13.285
2017-11-17T11:55:09,42.805,6.029,4330,1995,197.576,60.418,13.285
2017-11-17T11:58:09,42.805,6.029,4330,1995,197.475,60.387,13.285
2017-11-17T12:01:09,42.805,6.029,4330,1995,197.423,60.371,13.285
2017-11-17T12:04:09,42.805,6.029,4330,1995,197.478,60.388,13.285
2017-11-17T12:07:09,42.805,6.029,4330,1995,197.400,60.364,13.285
2017-11-17T12:10:09,42.805,6.029,4330,1995,197.434,60.375,13.285
2017-11-17T12:13:09,42.805,6.029,4330,1995,197.398,60.363,13.285
2017-11-17T12:16:09,42.805,6.029,4330,1995,197.559,60.413,13.285
2017-11-17T12:19:09,42.805,6.029,4330,1995,197.633,60.435,13.285
2017-11-17T12:22:09,42.805,6.029,4330,1995,197.817,60.492,13.285
2017-11-17T12:25:09,42.805,6.029,4330,1995,197.838,60.498,13.285
2017-11-17T12:28:09,42.805,6.029,4330,1995,197.989,60.544,13.285
2017-11-17T12:31:09,42.805,6.029,4330,1995,197.973,60.539,13.285
2017-11-17T12:34:09,42.805,6.029,4330,1995,198.090,60.575,13.285
2017-11-17T12:37:09,42.805,6.029,4330,1995,198.135,60.589,13.285
2017-11-17T12:40:09,42.805,6.029,4330,1995,198.155,60.595,13.285
2017-11-17T12:43:09,42.805,6.029,4330,1995,198.242,60.622,13.285
2017-11-17T12:46:09,42.805,6.029,4330,1995,198.191,60.606,13.285
2017-11-17T12:49:09,42.805,6.029,4330,1995,198.204,60.610,13.285
2017-11-17T12:52:09,42.805,6.029,4330,1995,198.208,60.611,13.285
2017-11-17T12:55:09,42.805,6.029,4330,1995,198.331,60.649,13.285
2017-11-17T12:58:09,42.805,6.029,4330,1995,198.266,60.629,13.285
2017-11-17T13:01:09,42.805,6.029,4330,1995,198.351,60.655,13.285
2017-11-17T13:04:09,42.805,6.029,4330,1995,198.355,60.656,13.286
2017-11-17T13:07:09,42.805,6.029,4330,1995,198.327,60.648,13.285
2017-11-17T13:10:09,42.805,6.029,4330,1995,198.391,60.667,13.285
2017-11-17T13:13:09,42.805,6.029,4330,1995,198.340,60.652,13.285
2017-11-17T13:16:09,42.805,6.029,4330,1995,198.309,60.642,13.285
2017-11-17T13:19:09,42.805,6.029,4330,1995,198.255,60.626,13.285
2017-11-17T13:22:09,42.805,6.029,4330,1995,198.257,60.626,13.285
2017-11-17T13:25:09,42.805,6.029,4330,1995,198.319,60.645,13.285
2017-11-17T13:28:09,42.805,6.029,4330,1995,198.297,60.639,13.285
2017-11-17T13:31:09,42.805,6.029,4330,1995,198.376,60.663,13.285
2017-11-17T13:34:09,42.805,6.029,4330,1995,198.311,60.643,13.285
2017-11-17T13:37:09,42.805,6.029,4330,1995,198.281,60.633,13.285
2017-11-17T13:40:09,42.805,6.029,4330,1995,198.194,60.607,13.285
2017-11-17T13:43:09,42.805,6.029,4330,1995,198.116,60.583,13.285
2017-11-17T13:46:09,42.805,6.029,4330,1995,198.050,60.563,13.285
2017-11-17T13:49:09,42.805,6.029,4330,1995,197.980,60.542,13.286
2017-11-17T13:52:09,42.805,6.029,4330,1995,198.003,60.548,13.285
2017-11-17T13:55:09,42.805,6.029,4330,1995,198.029,60.557,13.285
2017-11-17T13:58:09,42.805,6.029,4330,1995,198.043,60.561,13.285
2017-11-17T14:01:09,42.805,6.029,4330,1995,198.045,60.561,13.285
2017-11-17T14:04:09,42.805,6.029,4330,1995,197.952,60.533,13.285
2017-11-17T14:07:09,42.805,6.029,4330,1995,197.922,60.524,13.285
2017-11-17T14:10:09,42.805,6.029,4330,1995,197.903,60.518,13.285
2017-11-17T14:13:09,42.805,6.029,4330,1995,198.008,60.550,13.285
2017-11-17T14:16:09,42.805,6.029,4330,1995,197.956,60.534,13.285
2017-11-17T14:19:09,42.805,6.029,4330,1995,197.956,60.534,13.285
2017-11-17T14:22:09,42.805,6.029,4330,1995,197.984,60.543,13.285
2017-11-17T14:25:09,42.805,6.029,4330,1995,197.987,60.544,13.285
2017-11-17T14:28:09,42.805,6.029,4330,1995,197.970,60.538,13.285
2017-11-17T14:31:09,42.805,6.029,4330,1995,198.020,60.554,13.285
2017-11-17T14:34:09,42.805,6.029,4330,1995,198.101,60.578,13.285
2017-11-17T14:37:09,42.805,6.029,4330,1995,198.046,60.562,13.285
2017-11-17T14:40:09,42.805,6.029,4330,1995,198.096,60.577,13.285
2017-11-17T14:43:09,42.805,6.029,4330,1995,198.136,60.589,13.285
2017-11-17T14:46:09,42.805,6.029,4330,1995,198.137,60.589,13.285
2017-11-17T14:49:09,42.805,6.029,4330,1995,198.194,60.607,13.285
2017-11-17T14:52:09,42.805,6.029,4330,1995,198.215,60.613,13.285
2017-11-17T14:55:09,42.805,6.029,4330,1995,198.230,60.618,13.285
2017-11-17T14:58:09,42.805,6.029,4330,1995,198.189,60.605,13.285
2017-11-17T15:01:09,42.805,6.029,4330,1995,198.272,60.631,13.285
2017-11-17T15:04:09,42.805,6.029,4330,1995,198.275,60.632,13.285
2017-11-17T15:07:09,42.805,6.029,4330,1995,198.317,60.645,13.285
2017-11-17T15:10:08,42.805,6.029,4330,1995,198.373,60.661,13.285
2017-11-17T15:13:08,42.805,6.029,4330,1995,198.318,60.645,13.285
2017-11-17T15:16:08,42.805,6.029,4330,1995,198.368,60.660,13.285
2017-11-17T15:19:08,42.805,6.029,4330,1995,198.378,60.663,13.285
2017-11-17T15:22:08,42.805,6.029,4330,1995,198.425,60.678,13.285
2017-11-17T15:25:08,42.805,6.029,4330,1995,198.396,60.669,13.285
2017-11-17T15:28:08,42.805,6.029,4330,1995,198.443,60.683,13.285
2017-11-17T15:31:08,42.805,6.029,4330,1995,198.402,60.671,13.285
2017-11-17T15:34:08,42.805,6.029,4330,1995,198.334,60.650,13.286
2017-11-17T15:37:08,42.805,6.029,4330,1995,198.297,60.638,13.285
2017-11-17T15:40:08,42.805,6.029,4330,1995,198.362,60.658,13.285
2017-11-17T15:43:08,42.805,6.029,4330,1995,198.313,60.643,13.285
2017-11-17T15:46:08,42.805,6.029,4330,1995,198.325,60.647,13.285
2017-11-17T15:49:08,42.805,6.029,4330,1995,198.270,60.630,13.285
2017-11-17T15:52:08,42.805,6.029,4330,1995,198.293,60.637,13.285
2017-11-17T15:55:08,42.805,6.029,4330,1995,198.254,60.625,13.285
2017-11-17T15:58:08,42.805,6.029,4330,1995,198.280,60.633,13.285
2017-11-17T16:01:08,42.805,6.029,4330,1995,198.285,60.635,13.285
2017-11-17T16:04:08,42.805,6.029,4330,1995,198.311,60.643,13.286
2017-11-17T16:07:08,42.805,6.029,4330,1995,198.296,60.638,13.286
2017-11-17T16:10:08,42.805,6.029,4330,1995,198.377,60.663,13.286
2017-11-17T16:13:08,42.805,6.029,4330,1995,198.341,60.653,13.286
2017-11-17T16:16:08,42.805,6.029,4330,1995,198.406,60.672,13.286
2017-11-17T16:19:08,42.805,6.029,4330,1995,198.356,60.657,13.286
2017-11-17T16:22:08,42.805,6.029,4330,1995,198.324,60.647,13.286
2017-11-17T16:25:08,42.805,6.029,4330,1995,198.346,60.654,13.286
2017-11-17T16:28:08,42.805,6.029,4330,1995,198.318,60.646,13.286
2017-11-17T16:31:08,42.805,6.029,4330,1995,198.289,60.637,13.286
2017-11-17T16:34:08,42.805,6.029,4330,1995,198.328,60.649,13.286
2017-11-17T16:37:08,42.805,6.029,4330,1995,198.308,60.642,13.286
2017-11-17T16:40:08,42.805,6.029,4330,1995,198.266,60.630,13.286
2017-11-17T16:43:08,42.805,6.029,4330,1995,198.180,60.604,13.286
2017-11-17T16:46:08,42.805,6.029,4330,1995,198.199,60.609,13.286
2017-11-17T16:49:08,42.805,6.029,4330,1995,198.164,60.599,13.286
2017-11-17T16:52:08,42.805,6.029,4330,1995,198.162,60.598,13.286
2017-11-17T16:55:08,42.805,6.029,4330,1995,198.145,60.593,13.286
2017-11-17T16:58:08,42.805,6.029,4330,1995,198.070,60.570,13.286
2017-11-17T17:01:08,42.805,6.029,4330,1995,198.096,60.578,13.286
2017-11-17T17:04:08,42.805,6.029,4330,1995,198.009,60.551,13.286
2017-11-17T17:07:08,42.805,6.029,4330,1995,198.032,60.559,13.286
2017-11-17T17:10:08,42.805,6.029,4330,1995,198.010,60.552,13.286
2017-11-17T17:13:08,42.805,6.029,4330,1995,197.976,60.541,13.286
2017-11-17T17:16:08,42.805,6.029,4330,1995,197.976,60.541,13.286
2017-11-17T17:19:08,42.805,6.029,4330,1995,198.037,60.560,13.286
2017-11-17T17:22:08,42.805,6.029,4330,1995,198.043,60.562,13.286
2017-11-17T17:25:08,42.805,6.029,4330,1995,197.939,60.530,13.286
2017-11-17T17:28:08,42.805,6.029,4330,1995,197.914,60.522,13.286
2017-11-17T17:31:08,42.805,6.029,4330,1995,197.925,60.525,13.286
2017-11-17T17:34:08,42.805,6.029,4330,1995,197.936,60.529,13.286
2017-11-17T17:37:08,42.805,6.029,4330,1995,197.831,60.497,13.286
2017-11-17T17:40:08,42.805,6.029,4330,1995,197.834,60.498,13.286
2017-11-17T17:43:08,42.805,6.029,4330,1995,197.752,60.473,13.286
2017-11-17T17:46:08,42.805,6.029,4330,1995,197.784,60.482,13.286
2017-11-17T17:49:08,42.805,6.029,4330,1995,197.816,60.492,13.286
2017-11-17T17:52:08,42.805,6.029,4330,1995,197.763,60.476,13.286
2017-11-17T17:55:08,42.805,6.029,4330,1995,197.759,60.475,13.286
2017-11-17T17:58:08,42.805,6.029,4330,1995,197.782,60.482,13.286
2017-11-17T18:01:08,42.805,6.029,4330,1995,197.639,60.438,13.286
2017-11-17T18:04:08,42.805,6.029,4330,1995,197.729,60.466,13.286
2017-11-17T18:07:08,42.805,6.029,4330,1995,197.636,60.437,13.286